CZ-6A DEB

Satellite information

Favourite Embed

Satellite Type and Status

DEBRISIN ORBIT

Key statistics

Satellite CZ-6A DEB at a glance.

Uptime

969

Days in orbit

Revolutions

≈ 14.4

Per day

Orbit

SSO

Sun Synchronous Orbit

Inclination

98.7

Latest

Satellite identification and parameters

Extended collection of information and parameters for CZ-6A DEB.

Object identification

Identified? True

Debris? True

Object name: CZ-6A DEB

International designator: 2022-151HG

Object number (NORAD): 54480

Object ID (CCSDS): 54480

Country: PEOPLES REPUBLIC OF CHINA (PRC)

Current information (Y/N): Y

RCS size: SMALL

Orbital parameters

Period: 100.173 minutes

Inclination: 98.6502 deg

SMA: 7144.846 km

Apoapsis: 858.944 km

Periapsis: 674.477 km

RAAN: 216.5868 deg

Eccentricy: 0.0129091

Argument of periapsis: 321.4784 deg

Mean anomaly: 37.7242 deg

Mean motion: 14.37518643 rev/day

Mean motion (dot): 0.00000219 rev/day2

B* drag term: 0.000081707 1/REarth

Two-line elements (TLE)

Creation date: July 6, 2025, 6:05 p.m.

Reference frame: TEME

Reference center: EARTH

Epoch: July 6, 2025, 2:25 p.m. UTC

TLE line 0: 0 CZ-6A DEB

TLE line 1: 1 54480U 22151HG 25187.60114680 .00000219 00000-0 81707-4 0 9990

TLE line 2: 2 54480 98.6502 216.5868 0129091 321.4784 37.7242 14.37518643138650

Live tracking on map

Real-time ground track for satellite CZ-6A DEB.

In-orbit conjunctions

A list of the most updated potential collisions computed for object CZ-6A DEB.

Target Orbit TCA Probability of collision Miss distance Type
ELECTRON KICK STAGE R/B SSO 2024-09-02 18:21:54 0.000582233 132.0 (m) ROCKET BODY
COSMOS 374 DEB LEO 2024-07-02 05:10:43 0.0001041633 425.0 (m) DEBRIS

Associated space launch

Chinese satellite reported for atmospheric/ocean/environmental/spatial parameter research purposes, details TBD.

CZ-6A DEB was lifted into orbit during the mission ‘Long March 6A | Yunhai 3’, on board a Long March 6A space rocket.

The launch took place on Nov. 11, 2022, 10:52 p.m. from Launch Complex 9A.

For more information about the launch, click the button.

Launch to space Long March 6A | Yunhai 3
Long March 6A | Yunhai 3

Agency: N/A

Status: Launch Successful

Launch date: Nov. 11, 2022, 10:52 p.m. UTC

Rocket: Long March 6A

Launch pad: Launch Complex 9A

Location: Taiyuan Satellite Launch Center, People's Republic of China

...

Latest news about this satellite

There are no fresh news available about this satellite. Check back as we update our databases every day.


Newsletter sign-up

Weekly statistics, charts and insights to help you stay on top of the space industry.